Weather History for PAHN - December, 2012

Change the Weather History Date:

Tuesday, December 4, 2012

  Actual Average Record
Temperature  
Mean Temperature 8 °F -  
Max Temperature 10 °F 31 °F 48 °F (2006)
Min Temperature 6 °F 24 °F -10 °F (1975)
Degree Days  
Heating Degree Days 57    
Moisture  
Dew Point -3 °F    
Average Humidity 62    
Maximum Humidity 79    
Minimum Humidity 48    
Precipitation  
Precipitation 0.00 in - - ()
Sea Level Pressure  
Sea Level Pressure 29.53 in    
Wind  
Wind Speed 17 mph (NW)    
Max Wind Speed 24 mph    
Max Gust Speed 36 mph    
Visibility 7 miles    
Events Snow    
Averages and records for this station are not official NWS values.
T = Trace of Precipitation, MM = Missing Value Source: NWS Daily Summary

Daily Weather History Graph

Daily Weather History Graph

Search for Another Location

Airport or City:

Trip Planner

Search our weather history database for the weather conditions in past years. The results will help you decide how hot, cold, wet, or windy it might be!

Date:

Astronomy

Dec. 04, 2012 Rise Set
Actual Time 8:37 AM AKST 3:07 PM AKST
Civil Twilight 7:44 AM AKST 4:00 PM AKST
Nautical Twilight 6:50 AM AKST 4:54 PM AKST
Astronomical Twilight 6:01 AM AKST 5:43 PM AKST
Moon 10:05 PM AKST (12/4) 11:38 AM AKST (12/4)
Length of Visible Light 8h 15m
Length of Day
6h 29m
Waning Gibbous, 68% of the Moon is Illuminated
Dec 4
Waning Gibbous
Dec 6
Last Quarter
Dec 12
New
Dec 19
First Quarter
Dec 28
Full

Hourly Weather History & Observations

Time (AKST) Temp. Windchill Dew Point Humidity Pressure Visibility Wind Dir Wind Speed Gust Speed Precip Events Conditions
12:54 AM 7.0 °F -11.0 °F -5.1 °F 58% 29.57 in 10.0 mi NW 16.1 mph 27.6 mph N/A   Overcast
1:54 AM 7.0 °F -10.4 °F -5.1 °F 58% 29.55 in 10.0 mi NW 15.0 mph 28.8 mph N/A   Overcast
3:54 AM 7.0 °F -10.4 °F -2.9 °F 64% 29.53 in 4.0 mi NW 15.0 mph 25.3 mph 0.00 in Snow Light Snow
4:31 AM 6.8 °F -7.8 °F -2.2 °F 67% 29.52 in 2.5 mi NW 10.4 mph 26.5 mph 0.00 in Snow Light Snow
4:41 AM 6.8 °F -10.7 °F -2.2 °F 67% 29.51 in 3.0 mi WNW 15.0 mph 26.5 mph 0.00 in Snow Light Snow
4:54 AM 7.0 °F -11.6 °F -2.0 °F 67% 29.52 in 3.0 mi NW 17.3 mph 27.6 mph 0.00 in Snow Light Snow
5:54 AM 7.0 °F -10.4 °F -0.9 °F 70% 29.51 in 3.0 mi NW 15.0 mph 31.1 mph 0.00 in Snow Light Snow
6:07 AM 6.8 °F -9.3 °F -0.4 °F 72% 29.50 in 2.5 mi NW 12.7 mph 28.8 mph 0.00 in Snow Light Snow
6:26 AM 6.8 °F -11.8 °F 1.4 °F 79% 29.50 in 5.0 mi NW 17.3 mph 29.9 mph 0.00 in Snow Light Snow
6:54 AM 7.0 °F -11.0 °F -0.0 °F 73% 29.50 in 7.0 mi NW 16.1 mph 27.6 mph 0.00 in Snow Light Snow
7:51 AM 6.8 °F -12.9 °F 1.4 °F 79% 29.48 in 2.0 mi WNW 19.6 mph 32.2 mph 0.00 in Snow Light Snow
7:54 AM 7.0 °F -12.6 °F 1.0 °F 77% 29.49 in 2.0 mi WNW 19.6 mph 32.2 mph 0.00 in Snow Light Snow
8:22 AM 6.8 °F -12.4 °F 1.4 °F 79% 29.48 in 3.0 mi WNW 18.4 mph 28.8 mph 0.00 in Snow Light Snow
8:54 AM 7.0 °F -10.4 °F 1.0 °F 77% 29.49 in 10.0 mi WNW 15.0 mph 25.3 mph 0.00 in   Overcast
9:54 AM 8.1 °F -11.2 °F -0.9 °F 67% 29.48 in 8.0 mi WNW 19.6 mph 31.1 mph 0.00 in   Overcast
10:54 AM 8.1 °F -11.2 °F -2.9 °F 61% 29.47 in 9.0 mi WNW 19.6 mph 35.7 mph N/A   Overcast
11:54 AM 9.0 °F -9.5 °F -2.9 °F 59% 29.47 in 10.0 mi WNW 18.4 mph 33.4 mph N/A   Scattered Clouds
12:54 PM 9.0 °F -9.5 °F -2.9 °F 59% 29.49 in 10.0 mi WNW 18.4 mph 29.9 mph N/A   Clear
1:54 PM 9.0 °F -7.3 °F -2.9 °F 59% 29.51 in 10.0 mi NNW 13.8 mph 24.2 mph N/A   Clear
2:54 PM 9.0 °F -9.0 °F -4.0 °F 56% 29.52 in 10.0 mi NW 17.3 mph 28.8 mph N/A   Mostly Cloudy
3:54 PM 8.1 °F -11.7 °F -6.0 °F 53% 29.52 in 10.0 mi NW 20.7 mph 31.1 mph N/A   Scattered Clouds
4:54 PM 9.0 °F -11.8 °F -7.1 °F 48% 29.54 in 10.0 mi NW 24.2 mph 35.7 mph N/A   Clear
5:54 PM 9.0 °F -10.0 °F -7.1 °F 48% 29.57 in 10.0 mi NW 19.6 mph 28.8 mph N/A   Overcast
6:54 PM 9.0 °F -10.0 °F -6.0 °F 51% 29.57 in 10.0 mi WNW 19.6 mph 31.1 mph N/A   Overcast
7:54 PM 9.0 °F -10.0 °F -6.0 °F 51% 29.58 in 10.0 mi WNW 19.6 mph 28.8 mph N/A   Overcast
8:54 PM 9.0 °F -9.0 °F -7.1 °F 48% 29.59 in 10.0 mi WNW 17.3 mph 27.6 mph N/A   Overcast
9:54 PM 9.0 °F -7.9 °F -6.0 °F 51% 29.62 in 10.0 mi NW 15.0 mph 23.0 mph N/A   Overcast
10:54 PM 10.0 °F -8.6 °F -5.1 °F 51% 29.63 in 10.0 mi WNW 19.6 mph 25.3 mph 0.00 in   Overcast
11:54 PM 9.0 °F -7.9 °F -2.9 °F 59% 29.64 in 9.0 mi WNW 15.0 mph 21.9 mph 0.00 in Snow Light Snow